Weather History for False Pass, AK

Change the Weather History Date:

Monday, September 2, 2013

  Actual Average (PACD) Record (PACD)
Temperature  
Mean Temperature 52 °F 51 °F  
Max Temperature 51 °F 55 °F 62 °F (1942)
Min Temperature 48 °F 46 °F 38 °F (1966)
Degree Days  
Heating Degree Days 14 14  
Month to date heating degree days 28  
Since 1 July heating degree days 872  
Cooling Degree Days 0    
Month to date cooling degree days  
Year to date cooling degree days  
Growing Degree Days 2 (Base 50)    
Moisture  
Dew Point 49 °F    
Average Humidity 88    
Maximum Humidity 100    
Minimum Humidity 74    
Precipitation  
Precipitation 0.27 in 0.14 in 0.61 in (1957)
Month to date precipitation 0.27  
Year to date precipitation 23.01  
Snow  
Snow 0.00 in 0.00 in 0.00 in (2014)
Month to date snowfall 0.0  
Since 1 July snowfall 0.0  
Since 1 September snowfall 0.0  
Snow Depth -    
Sea Level Pressure  
Sea Level Pressure 29.29 in    
Wind  
Wind Speed 13 mph (SE)    
Max Wind Speed 29 mph    
Max Gust Speed 46 mph    
Visibility 9 miles    
Events Rain    
T = Trace of Precipitation, MM = Missing Value Source: NWS Daily Summary

Daily Weather History Graph

Daily Weather History Graph

Search for Another Location

Airport:

Trip Planner

Search our weather history database for the weather conditions in past years. The results will help you decide how hot, cold, wet, or windy it might be!

Date:

Astronomy

Sep. 02, 2013 Rise Set
Actual Time 7:03 AM HADT 8:41 PM HADT
Civil Twilight 6:25 AM HADT 9:19 PM HADT
Nautical Twilight 5:37 AM HADT 10:06 PM HADT
Astronomical Twilight 4:44 AM HADT 10:59 PM HADT
Moon 4:16 AM HADT (9/2) 7:12 PM HADT (9/2)
Length of Visible Light 14h 54m
Length of Day
13h 38m
Waning Crescent, 7% of the Moon is Illuminated
Sep 2
Waning Crescent
Sep 5
New
Sep 12
First Quarter
Sep 19
Full
Sep 26
Last Quarter

Hourly Weather History & Observations

Time (HADT) Temp. Dew Point Humidity Pressure Visibility Wind Dir Wind Speed Gust Speed Precip Events Conditions
12:01 AM 55.4 °F 53.6 °F 94% 29.25 in 10.0 mi North - - N/A   Mostly Cloudy
12:08 AM 53.6 °F 51.8 °F 94% 29.24 in 10.0 mi NW 11.5 mph 16.1 mph N/A   Mostly Cloudy
12:27 AM 53.6 °F 51.8 °F 94% 29.25 in 10.0 mi Variable 5.8 mph - N/A   Mostly Cloudy
12:36 AM 53.6 °F 51.8 °F 94% 29.25 in 10.0 mi Calm Calm - N/A   Mostly Cloudy
12:52 AM 51.8 °F 51.8 °F 100% 29.25 in 10.0 mi NE 4.6 mph - N/A   Mostly Cloudy
1:01 AM 53.6 °F 51.8 °F 94% 29.25 in 10.0 mi NNW 3.5 mph - N/A   Mostly Cloudy
1:09 AM 53.6 °F 51.8 °F 94% 29.25 in 10.0 mi Variable 5.8 mph - N/A   Scattered Clouds
2:01 AM 51.1 °F 46.9 °F 86% 29.52 in 10.0 mi Calm Calm - 0.01 in   Clear
3:01 AM 48.0 °F 45.0 °F 89% 29.52 in 10.0 mi Calm Calm - N/A   Partly Cloudy
4:01 AM 52.0 °F 45.0 °F 77% 29.49 in 10.0 mi SSE 13.8 mph 26.5 mph N/A   Clear
5:01 AM 53.1 °F 46.9 °F 80% 29.50 in 10.0 mi SSE 20.7 mph 27.6 mph N/A   Clear
5:31 AM 53.6 °F 46.4 °F 77% 29.23 in 10.0 mi SSE 16.1 mph 29.9 mph N/A   Mostly Cloudy
6:01 AM 52.0 °F 48.9 °F 89% 29.51 in 10.0 mi SSE 10.4 mph 24.2 mph 0.00 in   Overcast
6:14 AM 51.8 °F 48.2 °F 88% 29.23 in 10.0 mi ESE 13.8 mph 19.6 mph N/A   Overcast
6:27 AM 51.8 °F 48.2 °F 88% 29.22 in 10.0 mi SE 16.1 mph 25.3 mph N/A   Overcast
6:36 AM 51.8 °F 48.2 °F 88% 29.22 in 10.0 mi SSE 12.7 mph 24.2 mph N/A   Overcast
6:44 AM 51.8 °F 48.2 °F 88% 29.21 in 10.0 mi SSE 18.4 mph 24.2 mph N/A   Overcast
7:01 AM 52.0 °F 48.9 °F 89% 29.48 in 9.0 mi SE 21.9 mph 33.4 mph N/A   Overcast
7:34 AM 53.6 °F 48.2 °F 82% 29.19 in 10.0 mi South 18.4 mph 33.4 mph N/A   Overcast
8:01 AM 52.0 °F 50.0 °F 93% 29.46 in 7.0 mi SSE 21.9 mph 31.1 mph 0.00 in Rain Light Rain
8:23 AM 53.6 °F 50.0 °F 88% 29.17 in 8.0 mi SSE 23.0 mph 39.1 mph 0.00 in Rain Light Rain
9:01 AM 53.1 °F 50.0 °F 89% 29.43 in 7.0 mi SSE 27.6 mph 35.7 mph 0.00 in Rain Light Rain
10:01 AM 53.1 °F 51.1 °F 93% 29.41 in 8.0 mi SSE 19.6 mph 32.2 mph 0.08 in Rain Light Rain
10:34 AM 53.6 °F 51.8 °F 94% 29.14 in 5.0 mi SSE 20.7 mph 33.4 mph 0.00 in Rain Light Rain
11:01 AM 53.1 °F 51.1 °F 93% 29.41 in 4.0 mi SSE 21.9 mph 41.4 mph 0.07 in Rain Rain
11:38 AM 53.6 °F 50.0 °F 88% 29.12 in 9.0 mi SSE 19.6 mph 36.8 mph 0.02 in   Overcast
12:01 PM 54.0 °F 50.0 °F 86% 29.39 in 7.0 mi SSE 25.3 mph 42.6 mph 0.02 in   Overcast
1:01 PM 55.0 °F 50.0 °F 83% 29.38 in 6.0 mi SE 23.0 mph 46.0 mph 0.00 in Rain Light Rain
1:27 PM 53.6 °F 51.8 °F 94% 29.11 in 8.0 mi SSE 19.6 mph 43.7 mph 0.02 in Rain Light Rain
1:58 PM 55.4 °F 51.8 °F 88% 29.11 in 9.0 mi SSE 28.8 mph 41.4 mph 0.03 in   Overcast
2:01 PM 55.4 °F 51.8 °F 88% 29.11 in 8.0 mi SE 23.0 mph 41.4 mph 0.03 in   Overcast
2:08 PM 53.6 °F 51.8 °F 94% 29.11 in 6.0 mi SSE 24.2 mph 41.4 mph 0.03 in Rain Light Rain
2:35 PM 54.0 °F 51.1 °F 90% 29.39 in 7.0 mi SE 25.3 mph 36.8 mph 0.03 in Rain Light Rain
3:01 PM 55.0 °F 50.0 °F 83% 29.39 in 10.0 mi SSE 18.4 mph 35.7 mph 0.00 in   Overcast
4:01 PM 54.0 °F 48.9 °F 83% 29.39 in 10.0 mi SSE 17.3 mph 29.9 mph N/A   Overcast
5:01 PM 53.1 °F 48.9 °F 86% 29.38 in 7.0 mi SSE 15.0 mph 33.4 mph 0.00 in Rain Light Rain
5:12 PM 53.6 °F 48.2 °F 82% 29.11 in 10.0 mi SSE 15.0 mph 27.6 mph 0.00 in Rain Light Rain
5:21 PM 53.6 °F 48.2 °F 82% 29.10 in 10.0 mi South 16.1 mph 25.3 mph 0.00 in Rain Light Rain
6:01 PM 53.1 °F 48.0 °F 83% 29.38 in 10.0 mi SSE 13.8 mph 27.6 mph 0.00 in   Overcast
7:01 PM 54.0 °F 48.0 °F 80% 29.38 in 9.0 mi SSE 19.6 mph 36.8 mph 0.00 in Rain Light Rain
8:01 PM 52.0 °F 50.0 °F 93% 29.37 in 6.0 mi SSE 17.3 mph 27.6 mph 0.06 in Rain Light Rain
9:01 PM 52.0 °F 48.0 °F 86% 29.37 in 10.0 mi SSE 19.6 mph 29.9 mph 0.00 in Rain Light Rain
9:23 PM 51.8 °F 48.2 °F 88% 29.10 in 10.0 mi SE 13.8 mph 23.0 mph 0.00 in Rain Light Rain
10:01 PM 52.0 °F 48.9 °F 89% 29.38 in 10.0 mi Variable 6.9 mph - 0.00 in Rain Light Rain
10:23 PM 51.8 °F 46.4 °F 82% 29.09 in 10.0 mi ESE 13.8 mph 20.7 mph 0.00 in Rain Light Rain
10:37 PM 51.8 °F 46.4 °F 82% 29.10 in 10.0 mi ESE 11.5 mph 24.2 mph 0.00 in   Overcast
10:45 PM 51.8 °F 46.4 °F 82% 29.09 in 10.0 mi East 18.4 mph 24.2 mph 0.00 in   Overcast
11:01 PM 52.0 °F 44.1 °F 74% 29.37 in 10.0 mi South 4.6 mph - 0.00 in   Overcast